sat.trackr.live / text

‹ back to catalog

IRNSS-1I

NORAD 43286 · 2018-035A

PAYLOAD ACTIVE UNKNOWN

§ Identity

Operator
Country
IND
Launch date
2018-04-11
Launch site
SRILR
Launch vehicle
Mass (kg)
RCS (m²)

Purposes: comms, nav

External: N2YO · Heavens-Above · Gunter

§ Orbital elements

Epoch: 2026-05-24T21:09:40.110336Z

Period
1,436.07 min
Inclination
29.1250°
Eccentricity
0.0017489
Mean motion
1.00273959 rev/d
Perigee alt
35,712.2 km
Apogee alt
35,859.7 km
Semi-major
42,164.1 km
B*
0.0000e+0
RAAN
74.5548°
Arg perigee
178.6700°
Mean anomaly
1.6558°
Rev number
2,984

§ Raw data

IRNSS-1I1 43286U 18035A   26144.88171424  .00000081  00000+0  00000+0 0  99992 43286  29.1250  74.5548 0017489 178.6700   1.6558  1.00273959 29849

JSON: /api/v1/satellites/43286 · /tle

For live sub-satellite position, see the globe view (requires WebGL).

§ Visibility from observer

Set your observer location to see the next 7 days of passes ≥ 10°. The values pass through the URL so the page stays shareable.

No JS? Fill the form by hand. The geolocation button needs JavaScript.